| time (UTC) | temp C | wind direction | speed KPH | gust KPH | rain 1hr cm | rain 24hr cm | rain mn cm | humidity % | barometer mb |
| 20260506002600 | 26 | 163 | 12.9 | 27.4 | 0.00 | 0.00 | 0.00 | 85 | 1007.9 |
| 20260506002057 | 26 | 170 | 6.4 | 14.5 | 0.00 | 0.00 | 0.00 | 85 | 1008.0 |
| 20260506001553 | 26 | 151 | 16.1 | 19.3 | 0.00 | 0.00 | 0.00 | 85 | 1008.0 |
| 20260506001050 | 26 | 171 | 14.5 | 22.5 | 0.00 | 0.00 | 0.00 | 85 | 1008.0 |
| 20260506000547 | 26 | 184 | 19.3 | 32.2 | 0.00 | 0.00 | 0.00 | 84 | 1008.0 |
| 20260506000045 | 26 | 192 | 9.7 | 22.5 | 0.00 | 0.00 | 0.00 | 85 | 1008.1 |
| 20260505235543 | 26 | 171 | 9.7 | 20.9 | 0.00 | 0.00 | 0.00 | 84 | 1007.9 |
| 20260505235040 | 26 | 185 | 11.3 | 17.7 | 0.00 | 0.00 | 0.00 | 84 | 1007.8 |
| 20260505234536 | 26 | 181 | 16.1 | 22.5 | 0.00 | 0.00 | 0.00 | 84 | 1007.7 |
| 20260505234033 | 26 | 186 | 9.7 | 24.1 | 0.00 | 0.00 | 0.00 | 84 | 1007.6 |
| 20260505233531 | 26 | 172 | 11.3 | 22.5 | 0.00 | 0.00 | 0.00 | 84 | 1007.5 |
| 20260505233028 | 26 | 167 | 20.9 | 27.4 | 0.00 | 0.00 | 0.00 | 83 | 1007.7 |
| 20260505232526 | 26 | 170 | 19.3 | 25.7 | 0.00 | 0.00 | 0.00 | 83 | 1008.0 |
| 20260505232023 | 26 | 161 | 11.3 | 16.1 | 0.00 | 0.00 | 0.00 | 84 | 1007.7 |
| 20260505231520 | 26 | 164 | 11.3 | 19.3 | 0.00 | 0.00 | 0.00 | 83 | 1007.7 |
| 20260505231019 | 27 | 168 | 9.7 | 24.1 | 0.00 | 0.00 | 0.00 | 82 | 1007.6 |
| 20260505230516 | 27 | 170 | 16.1 | 27.4 | 0.00 | 0.00 | 0.00 | 81 | 1007.5 |
| 20260505230012 | 27 | 171 | 17.7 | 27.4 | 0.00 | 0.00 | 0.00 | 82 | 1007.7 |
| 20260505225509 | 27 | 154 | 9.7 | 27.4 | 0.00 | 0.00 | 0.00 | 82 | 1007.5 |
| 20260505225005 | 26 | 171 | 12.9 | 29.0 | 0.00 | 0.00 | 0.00 | 82 | 1007.6 |
| 20260505224502 | 27 | 155 | 14.5 | 27.4 | 0.00 | 0.00 | 0.00 | 82 | 1007.7 |
| 20260505223959 | 27 | 174 | 16.1 | 32.2 | 0.00 | 0.00 | 0.00 | 81 | 1007.6 |
| 20260505223456 | 27 | 189 | 16.1 | 24.1 | 0.00 | 0.00 | 0.00 | 81 | 1007.6 |
| 20260505222952 | 27 | 173 | 8.0 | 29.0 | 0.00 | 0.00 | 0.00 | 81 | 1007.9 |
| 20260505222449 | 27 | 180 | 14.5 | 30.6 | 0.00 | 0.00 | 0.00 | 81 | 1007.9 |
| 20260505221944 | 27 | 151 | 9.7 | 24.1 | 0.00 | 0.00 | 0.00 | 81 | 1007.7 |
| 20260505221442 | 27 | 167 | 17.7 | 25.7 | 0.00 | 0.00 | 0.00 | 80 | 1007.8 |
| 20260505220939 | 27 | 165 | 14.5 | 25.7 | 0.00 | 0.00 | 0.00 | 81 | 1007.8 |
| 20260505220436 | 27 | 170 | 25.7 | 30.6 | 0.00 | 0.00 | 0.00 | 79 | 1007.7 |
| 20260505215933 | 28 | 172 | 9.7 | 24.1 | 0.00 | 0.00 | 0.00 | 79 | 1008.1 |
| 20260505215431 | 28 | 166 | 19.3 | 25.7 | 0.00 | 0.00 | 0.00 | 80 | 1007.8 |
| 20260505214929 | 27 | 196 | 17.7 | 29.0 | 0.00 | 0.00 | 0.00 | 79 | 1007.8 |
| 20260505214427 | 27 | 169 | 17.7 | 27.4 | 0.00 | 0.00 | 0.00 | 79 | 1007.8 |
| 20260505213924 | 27 | 166 | 19.3 | 25.7 | 0.00 | 0.00 | 0.00 | 79 | 1007.9 |
| 20260505213421 | 27 | 171 | 16.1 | 24.1 | 0.00 | 0.00 | 0.00 | 80 | 1008.2 |
| 20260505212917 | 28 | 165 | 14.5 | 27.4 | 0.00 | 0.00 | 0.00 | 80 | 1008.2 |
| 20260505212414 | 27 | 171 | 19.3 | 24.1 | 0.00 | 0.00 | 0.00 | 80 | 1008.2 |
| 20260505211911 | 28 | 188 | 8.0 | 24.1 | 0.00 | 0.00 | 0.00 | 80 | 1008.1 |
| 20260505211409 | 27 | 163 | 11.3 | 29.0 | 0.00 | 0.00 | 0.00 | 79 | 1008.3 |
| 20260505210904 | 27 | 148 | 11.3 | 29.0 | 0.00 | 0.00 | 0.00 | 80 | 1008.2 |
| 20260505210402 | 28 | 167 | 16.1 | 29.0 | 0.00 | 0.00 | 0.00 | 80 | 1008.3 |
| 20260505205858 | 28 | 170 | 12.9 | 29.0 | 0.00 | 0.00 | 0.00 | 79 | 1008.5 |
| 20260505205357 | 28 | 183 | 12.9 | 27.4 | 0.00 | 0.00 | 0.00 | 77 | 1008.4 |
| 20260505204853 | 28 | 211 | 22.5 | 33.8 | 0.00 | 0.00 | 0.00 | 76 | 1008.5 |
| 20260505204351 | 28 | 166 | 14.5 | 24.1 | 0.00 | 0.00 | 0.00 | 76 | 1008.7 |
| 20260505203848 | 28 | 180 | 12.9 | 27.4 | 0.00 | 0.00 | 0.00 | 77 | 1008.8 |
| 20260505203344 | 28 | 170 | 14.5 | 33.8 | 0.00 | 0.00 | 0.00 | 76 | 1008.8 |
| 20260505202841 | 28 | 187 | 17.7 | 32.2 | 0.00 | 0.00 | 0.00 | 75 | 1008.8 |
| 20260505202337 | 28 | 201 | 19.3 | 32.2 | 0.00 | 0.00 | 0.00 | 76 | 1009.0 |
| 20260505201834 | 28 | 171 | 14.5 | 25.7 | 0.00 | 0.00 | 0.00 | 77 | 1009.0 |
| 20260505201331 | 28 | 203 | 17.7 | 22.5 | 0.00 | 0.00 | 0.00 | 78 | 1009.0 |
| 20260505200830 | 28 | 176 | 11.3 | 29.0 | 0.00 | 0.00 | 0.00 | 76 | 1009.2 |
| 20260505200326 | 28 | 203 | 24.1 | 32.2 | 0.00 | 0.00 | 0.00 | 76 | 1009.0 |
| 20260505195822 | 28 | 192 | 11.3 | 35.4 | 0.00 | 0.00 | 0.00 | 78 | 1009.0 |
| 20260505195319 | 28 | 166 | 25.7 | 35.4 | 0.00 | 0.00 | 0.00 | 77 | 1009.5 |
| 20260505194816 | 28 | 199 | 14.5 | 27.4 | 0.00 | 0.00 | 0.00 | 78 | 1009.5 |
| 20260505194313 | 28 | 204 | 19.3 | 27.4 | 0.00 | 0.00 | 0.00 | 78 | 1009.4 |
| 20260505193808 | 27 | 181 | 6.4 | 32.2 | 0.00 | 0.00 | 0.00 | 78 | 1009.7 |
| 20260505193307 | 27 | 197 | 16.1 | 25.7 | 0.00 | 0.00 | 0.00 | 79 | 1009.7 |
| 20260505192805 | 27 | 187 | 17.7 | 35.4 | 0.00 | 0.00 | 0.00 | 79 | 1009.8 |
| 20260505192305 | 28 | 162 | 19.3 | 22.5 | 0.00 | 0.00 | 0.00 | 81 | 1009.8 |
| 20260505191800 | 27 | 136 | 17.7 | 24.1 | 0.00 | 0.00 | 0.00 | 82 | 1009.8 |
| 20260505191258 | 27 | 201 | 9.7 | 20.9 | 0.00 | 0.00 | 0.00 | 81 | 1009.9 |
| 20260505190754 | 28 | 193 | 17.7 | 22.5 | 0.00 | 0.00 | 0.00 | 79 | 1010.0 |
| 20260505190249 | 28 | 186 | 11.3 | 17.7 | 0.00 | 0.00 | 0.00 | 81 | 1009.9 |
| 20260505185746 | 28 | 209 | 12.9 | 22.5 | 0.00 | 0.00 | 0.00 | 81 | 1009.8 |
| 20260505185242 | 27 | 215 | 12.9 | 19.3 | 0.00 | 0.00 | 0.00 | 83 | 1010.0 |
| 20260505184738 | 27 | 215 | 20.9 | 24.1 | 0.00 | 0.00 | 0.00 | 82 | 1010.2 |
| 20260505184236 | 27 | 192 | 8.0 | 20.9 | 0.00 | 0.00 | 0.00 | 82 | 1010.4 |
| 20260505183732 | 26 | 170 | 11.3 | 22.5 | 0.00 | 0.00 | 0.00 | 82 | 1010.3 |
| 20260505183230 | 27 | 174 | 16.1 | 27.4 | 0.00 | 0.00 | 0.00 | 81 | 1010.2 |
| 20260505182726 | 27 | 164 | 9.7 | 29.0 | 0.00 | 0.00 | 0.00 | 82 | 1010.1 |
| 20260505182223 | 27 | 196 | 14.5 | 22.5 | 0.00 | 0.00 | 0.00 | 82 | 1010.2 |
| 20260505181720 | 26 | 212 | 16.1 | 32.2 | 0.00 | 0.00 | 0.00 | 82 | 1010.4 |
| 20260505181218 | 26 | 191 | 17.7 | 30.6 | 0.00 | 0.00 | 0.00 | 83 | 1010.3 |
| 20260505180714 | 26 | 209 | 19.3 | 22.5 | 0.00 | 0.00 | 0.00 | 83 | 1010.4 |
| 20260505180211 | 26 | 168 | 11.3 | 22.5 | 0.00 | 0.00 | 0.00 | 83 | 1010.3 |
| 20260505175706 | 26 | 161 | 19.3 | 24.1 | 0.00 | 0.00 | 0.00 | 83 | 1010.4 |
| 20260505175203 | 26 | 197 | 17.7 | 24.1 | 0.00 | 0.00 | 0.00 | 84 | 1010.4 |
| 20260505174659 | 27 | 186 | 11.3 | 27.4 | 0.00 | 0.00 | 0.00 | 83 | 1010.4 |
| 20260505174156 | 26 | 212 | 17.7 | 27.4 | 0.00 | 0.00 | 0.00 | 82 | 1010.4 |
| 20260505173653 | 27 | 189 | 16.1 | 19.3 | 0.00 | 0.00 | 0.00 | 82 | 1010.7 |
| 20260505173150 | 26 | 225 | 14.5 | 24.1 | 0.00 | 0.00 | 0.00 | 83 | 1010.7 |
| 20260505172647 | 26 | 206 | 16.1 | 20.9 | 0.00 | 0.00 | 0.00 | 84 | 1010.6 |
| 20260505172144 | 26 | 173 | 17.7 | 22.5 | 0.00 | 0.00 | 0.00 | 84 | 1010.7 |
| 20260505171643 | 26 | 192 | 6.4 | 22.5 | 0.00 | 0.00 | 0.00 | 85 | 1010.7 |
| 20260505171141 | 26 | 204 | 8.0 | 25.7 | 0.00 | 0.00 | 0.00 | 84 | 1010.5 |
| 20260505170638 | 26 | 200 | 19.3 | 20.9 | 0.00 | 0.00 | 0.00 | 85 | 1010.7 |
| 20260505170134 | 26 | 227 | 11.3 | 24.1 | 0.00 | 0.00 | 0.00 | 85 | 1010.6 |
| 20260505165629 | 25 | 206 | 9.7 | 25.7 | 0.00 | 0.00 | 0.00 | 85 | 1010.7 |
| 20260505165126 | 25 | 212 | 14.5 | 30.6 | 0.00 | 0.00 | 0.00 | 86 | 1010.8 |
| 20260505164621 | 25 | 210 | 22.5 | 29.0 | 0.00 | 0.00 | 0.00 | 86 | 1010.8 |
| 20260505164119 | 25 | 186 | 19.3 | 25.7 | 0.00 | 0.00 | 0.00 | 86 | 1010.7 |
| 20260505163617 | 26 | 207 | 12.9 | 24.1 | 0.00 | 0.00 | 0.00 | 85 | 1010.7 |
| 20260505163114 | 26 | 193 | 19.3 | 22.5 | 0.00 | 0.00 | 0.00 | 86 | 1010.8 |
| 20260505162612 | 25 | 172 | 16.1 | 33.8 | 0.00 | 0.00 | 0.00 | 86 | 1010.8 |
| 20260505162109 | 25 | 201 | 24.1 | 32.2 | 0.00 | 0.00 | 0.00 | 87 | 1011.0 |
| 20260505161606 | 25 | 165 | 14.5 | 22.5 | 0.00 | 0.00 | 0.00 | 88 | 1010.9 |
| 20260505161103 | 25 | 228 | 20.9 | 25.7 | 0.00 | 0.00 | 0.00 | 88 | 1010.8 |
| 20260505160601 | 25 | 171 | 12.9 | 30.6 | 0.00 | 0.00 | 0.00 | 88 | 1010.6 |
| 20260505153038 | 24 | 215 | 11.3 | 22.5 | 0.00 | 0.00 | 0.00 | 91 | 1010.8 |
| 20260505152535 | 24 | 216 | 19.3 | 29.0 | 0.00 | 0.00 | 0.00 | 92 | 1010.7 |
| 20260505152030 | 24 | 209 | 17.7 | 20.9 | 0.00 | 0.00 | 0.00 | 92 | 1010.7 |
| 20260505151525 | 23 | 196 | 12.9 | 24.1 | 0.00 | 0.00 | 0.00 | 92 | 1010.9 |
| 20260505151023 | 23 | 213 | 17.7 | 33.8 | 0.00 | 0.00 | 0.00 | 92 | 1010.6 |
| 20260505150519 | 24 | 185 | 8.0 | 24.1 | 0.00 | 0.00 | 0.00 | 93 | 1010.5 |
| 20260505140444 | 22 | 179 | 16.1 | 17.7 | 0.00 | 0.00 | 0.00 | 96 | 1010.2 |
| 20260505124857 | 21 | 173 | 6.4 | 12.9 | 0.00 | 0.00 | 0.00 | 99 | 1010.2 |
| 20260505124355 | 21 | 177 | 6.4 | 17.7 | 0.00 | 0.00 | 0.00 | 99 | 1010.3 |
| 20260505123850 | 21 | 181 | 8.0 | 14.5 | 0.00 | 0.00 | 0.00 | 99 | 1010.2 |
| 20260505123347 | 20 | 160 | 8.0 | 12.9 | 0.00 | 0.00 | 0.00 | 99 | 1010.2 |
| 20260505122843 | 20 | 169 | 9.7 | 16.1 | 0.00 | 0.00 | 0.00 | 99 | 1010.1 |
| 20260505122341 | 20 | 170 | 9.7 | 16.1 | 0.00 | 0.00 | 0.00 | 99 | 1010.2 |
| 20260505121837 | 20 | 165 | 6.4 | 12.9 | 0.00 | 0.00 | 0.00 | 99 | 1010.2 |
| 20260505121334 | 20 | 162 | 4.8 | 11.3 | 0.00 | 0.00 | 0.00 | 99 | 1009.9 |
| 20260505120830 | 20 | 162 | 4.8 | 12.9 | 0.00 | 0.00 | 0.00 | 99 | 1009.9 |
| 20260505120327 | 20 | 197 | 6.4 | 12.9 | 0.00 | 0.00 | 0.00 | 99 | 1010.0 |
| 20260505115826 | 20 | 190 | 6.4 | 11.3 | 0.00 | 0.00 | 0.00 | 99 | 1010.0 |
| 20260505115323 | 20 | 167 | 6.4 | 9.7 | 0.00 | 0.00 | 0.00 | 99 | 1009.7 |
| 20260505114821 | 20 | 162 | 6.4 | 9.7 | 0.00 | 0.00 | 0.00 | 98 | 1010.0 |
| 20260505114317 | 20 | 174 | 4.8 | 11.3 | 0.00 | 0.00 | 0.00 | 98 | 1010.0 |
| 20260505113813 | 20 | 196 | 8.0 | 11.3 | 0.00 | 0.00 | 0.00 | 98 | 1009.8 |
| 20260505113309 | 20 | 170 | 4.8 | 14.5 | 0.00 | 0.00 | 0.00 | 98 | 1009.6 |
| 20260505112805 | 20 | 162 | 9.7 | 11.3 | 0.00 | 0.00 | 0.00 | 98 | 1009.7 |
| 20260505112305 | 20 | 163 | 6.4 | 9.7 | 0.00 | 0.00 | 0.00 | 98 | 1009.6 |
| 20260505111759 | 20 | 176 | 6.4 | 12.9 | 0.00 | 0.00 | 0.00 | 98 | 1009.6 |
| 20260505111254 | 20 | 179 | 6.4 | 14.5 | 0.00 | 0.00 | 0.00 | 98 | 1009.6 |
| 20260505110750 | 20 | 177 | 8.0 | 14.5 | 0.00 | 0.00 | 0.00 | 98 | 1009.6 |
| 20260505110248 | 20 | 160 | 12.9 | 14.5 | 0.00 | 0.00 | 0.00 | 98 | 1009.8 |
| 20260505101722 | 20 | 180 | 8.0 | 17.7 | 0.00 | 0.00 | 0.00 | 98 | 1009.6 |
| 20260505101218 | 20 | 178 | 8.0 | 14.5 | 0.00 | 0.00 | 0.00 | 98 | 1009.6 |
| 20260505100715 | 20 | 169 | 8.0 | 12.9 | 0.00 | 0.00 | 0.00 | 98 | 1009.8 |
| 20260505100212 | 20 | 195 | 11.3 | 12.9 | 0.00 | 0.00 | 0.00 | 97 | 1009.9 |
| 20260505095707 | 20 | 187 | 11.3 | 11.3 | 0.00 | 0.00 | 0.00 | 97 | 1009.8 |
| 20260505095205 | 20 | 176 | 6.4 | 14.5 | 0.00 | 0.00 | 0.00 | 97 | 1010.0 |
| 20260505094701 | 20 | 166 | 9.7 | 16.1 | 0.00 | 0.00 | 0.00 | 97 | 1009.9 |
| 20260505094157 | 20 | 179 | 6.4 | 16.1 | 0.00 | 0.00 | 0.00 | 97 | 1009.6 |
| 20260505093653 | 20 | 175 | 4.8 | 14.5 | 0.00 | 0.00 | 0.00 | 97 | 1009.8 |
| 20260505093151 | 20 | 174 | 8.0 | 12.9 | 0.00 | 0.00 | 0.00 | 97 | 1009.7 |
| 20260505092648 | 20 | 176 | 6.4 | 14.5 | 0.00 | 0.00 | 0.00 | 97 | 1009.8 |
| 20260505092147 | 20 | 177 | 8.0 | 12.9 | 0.00 | 0.00 | 0.00 | 97 | 1010.1 |
| 20260505091643 | 20 | 186 | 6.4 | 11.3 | 0.00 | 0.00 | 0.00 | 97 | 1010.2 |
| 20260505091141 | 20 | 192 | 9.7 | 11.3 | 0.00 | 0.00 | 0.00 | 97 | 1010.3 |
| 20260505090638 | 20 | 178 | 6.4 | 12.9 | 0.00 | 0.00 | 0.00 | 97 | 1009.9 |
| 20260505090137 | 20 | 156 | 4.8 | 11.3 | 0.00 | 0.00 | 0.00 | 96 | 1009.8 |
| 20260505085634 | 20 | 172 | 6.4 | 12.9 | 0.00 | 0.00 | 0.00 | 96 | 1010.0 |
| 20260505085132 | 20 | 187 | 6.4 | 14.5 | 0.00 | 0.00 | 0.00 | 96 | 1010.1 |
| 20260505084629 | 20 | 177 | 8.0 | 14.5 | 0.00 | 0.00 | 0.00 | 96 | 1010.3 |
| 20260505084128 | 20 | 210 | 9.7 | 12.9 | 0.00 | 0.00 | 0.00 | 96 | 1010.1 |
| 20260505083625 | 20 | 179 | 9.7 | 17.7 | 0.00 | 0.00 | 0.00 | 96 | 1010.2 |
| 20260505083121 | 20 | 187 | 6.4 | 14.5 | 0.00 | 0.00 | 0.00 | 96 | 1010.3 |
| 20260505082617 | 20 | 188 | 8.0 | 14.5 | 0.00 | 0.00 | 0.00 | 96 | 1010.3 |
| 20260505082114 | 20 | 185 | 6.4 | 16.1 | 0.00 | 0.00 | 0.00 | 96 | 1010.6 |
| 20260505081610 | 20 | 178 | 11.3 | 17.7 | 0.00 | 0.00 | 0.00 | 96 | 1010.6 |
| 20260505081108 | 20 | 192 | 4.8 | 22.5 | 0.00 | 0.00 | 0.00 | 96 | 1010.5 |
| 20260505080604 | 20 | 171 | 9.7 | 20.9 | 0.00 | 0.00 | 0.00 | 96 | 1010.6 |
| 20260505075556 | 20 | 200 | 11.3 | 16.1 | 0.00 | 0.00 | 0.00 | 95 | 1010.6 |
| 20260505075053 | 20 | 197 | 6.4 | 12.9 | 0.00 | 0.00 | 0.00 | 95 | 1010.8 |
| 20260505074550 | 20 | 199 | 4.8 | 11.3 | 0.00 | 0.00 | 0.00 | 95 | 1010.8 |
| 20260505074047 | 20 | 207 | 8.0 | 16.1 | 0.00 | 0.00 | 0.00 | 95 | 1010.8 |
| 20260505073544 | 20 | 195 | 9.7 | 11.3 | 0.00 | 0.00 | 0.00 | 95 | 1011.0 |
| 20260505073044 | 20 | 202 | 8.0 | 12.9 | 0.00 | 0.00 | 0.00 | 95 | 1011.0 |
| 20260505072538 | 20 | 180 | 9.7 | 19.3 | 0.00 | 0.00 | 0.00 | 95 | 1011.0 |
| 20260505072035 | 20 | 197 | 11.3 | 14.5 | 0.00 | 0.00 | 0.00 | 95 | 1010.9 |
| 20260505071530 | 20 | 187 | 6.4 | 14.5 | 0.00 | 0.00 | 0.00 | 94 | 1011.2 |
| 20260505071029 | 20 | 197 | 8.0 | 14.5 | 0.00 | 0.00 | 0.00 | 94 | 1011.0 |
| 20260505070526 | 20 | 182 | 8.0 | 16.1 | 0.00 | 0.00 | 0.00 | 94 | 1011.1 |
| 20260505070022 | 20 | 181 | 8.0 | 19.3 | 0.00 | 0.00 | 0.00 | 94 | 1010.9 |
| 20260505065518 | 20 | 172 | 6.4 | 20.9 | 0.00 | 0.00 | 0.00 | 94 | 1011.1 |
| 20260505065014 | 20 | 189 | 8.0 | 22.5 | 0.00 | 0.00 | 0.00 | 94 | 1011.0 |
| 20260505064511 | 20 | 174 | 9.7 | 19.3 | 0.00 | 0.00 | 0.00 | 93 | 1011.2 |
| 20260505064010 | 20 | 172 | 9.7 | 22.5 | 0.00 | 0.00 | 0.00 | 93 | 1011.3 |
| 20260505063507 | 20 | 165 | 11.3 | 17.7 | 0.00 | 0.00 | 0.00 | 93 | 1011.2 |
| 20260505063002 | 20 | 175 | 9.7 | 24.1 | 0.00 | 0.00 | 0.00 | 93 | 1011.2 |
| 20260505062459 | 20 | 180 | 6.4 | 20.9 | 0.00 | 0.00 | 0.00 | 93 | 1011.2 |
| 20260505061956 | 20 | 161 | 11.3 | 20.9 | 0.00 | 0.00 | 0.00 | 93 | 1011.3 |
| 20260505061454 | 20 | 171 | 11.3 | 19.3 | 0.00 | 0.00 | 0.00 | 92 | 1011.5 |
| 20260505060951 | 20 | 180 | 8.0 | 20.9 | 0.00 | 0.00 | 0.00 | 92 | 1011.4 |
| 20260505060449 | 20 | 166 | 12.9 | 19.3 | 0.00 | 0.00 | 0.00 | 92 | 1011.3 |
| 20260505055945 | 20 | 173 | 8.0 | 22.5 | 0.00 | 0.00 | 0.00 | 92 | 1011.3 |
| 20260505055441 | 20 | 174 | 12.9 | 20.9 | 0.00 | 0.00 | 0.00 | 92 | 1011.3 |
| 20260505054938 | 20 | 187 | 14.5 | 25.7 | 0.00 | 0.00 | 0.00 | 91 | 1011.5 |
| 20260505054435 | 20 | 171 | 20.9 | 20.9 | 0.00 | 0.00 | 0.00 | 91 | 1011.4 |
| 20260505053933 | 20 | 190 | 12.9 | 25.7 | 0.00 | 0.00 | 0.00 | 91 | 1011.5 |
| 20260505053430 | 20 | 166 | 11.3 | 17.7 | 0.00 | 0.00 | 0.00 | 91 | 1011.3 |
| 20260505052927 | 20 | 190 | 16.1 | 22.5 | 0.00 | 0.00 | 0.00 | 91 | 1011.5 |
| 20260505052424 | 21 | 174 | 9.7 | 22.5 | 0.00 | 0.00 | 0.00 | 90 | 1011.6 |
| 20260505051921 | 21 | 166 | 11.3 | 25.7 | 0.00 | 0.00 | 0.00 | 90 | 1011.5 |
| 20260505051418 | 21 | 176 | 14.5 | 25.7 | 0.00 | 0.00 | 0.00 | 90 | 1011.7 |
| 20260505050916 | 21 | 173 | 11.3 | 27.4 | 0.00 | 0.00 | 0.00 | 90 | 1011.7 |
| 20260505050414 | 21 | 166 | 24.1 | 24.1 | 0.00 | 0.00 | 0.00 | 90 | 1011.7 |
| 20260505041341 | 21 | 174 | 12.9 | 20.9 | 0.00 | 0.00 | 0.00 | 87 | 1012.1 |
| 20260505040839 | 21 | 170 | 22.5 | 25.7 | 0.00 | 0.00 | 0.00 | 87 | 1012.1 |
| 20260505040336 | 21 | 174 | 12.9 | 25.7 | 0.00 | 0.00 | 0.00 | 86 | 1012.1 |
| 20260505035833 | 21 | 165 | 14.5 | 30.6 | 0.00 | 0.00 | 0.00 | 86 | 1012.1 |
| 20260505035328 | 21 | 174 | 9.7 | 20.9 | 0.00 | 0.00 | 0.00 | 86 | 1012.2 |
| 20260505034826 | 21 | 176 | 12.9 | 27.4 | 0.00 | 0.00 | 0.00 | 86 | 1012.4 |
| 20260505034322 | 21 | 175 | 11.3 | 27.4 | 0.00 | 0.00 | 0.00 | 86 | 1012.1 |
| 20260505033820 | 21 | 168 | 14.5 | 24.1 | 0.00 | 0.00 | 0.00 | 85 | 1012.1 |
| 20260505033316 | 21 | 166 | 20.9 | 27.4 | 0.00 | 0.00 | 0.00 | 85 | 1012.0 |
| 20260505032815 | 21 | 160 | 14.5 | 24.1 | 0.00 | 0.00 | 0.00 | 85 | 1011.9 |
| 20260505032311 | 21 | 165 | 17.7 | 30.6 | 0.00 | 0.00 | 0.00 | 85 | 1012.0 |
| 20260505031808 | 21 | 177 | 17.7 | 27.4 | 0.00 | 0.00 | 0.00 | 85 | 1012.3 |
| 20260505031304 | 21 | 163 | 17.7 | 27.4 | 0.00 | 0.00 | 0.00 | 85 | 1012.2 |
| 20260505030802 | 21 | 181 | 11.3 | 25.7 | 0.00 | 0.00 | 0.00 | 84 | 1012.2 |
| 20260505030258 | 21 | 170 | 16.1 | 27.4 | 0.00 | 0.00 | 0.00 | 84 | 1012.1 |
| 20260505025753 | 21 | 163 | 19.3 | 29.0 | 0.00 | 0.00 | 0.00 | 84 | 1012.1 |
| 20260505025251 | 21 | 165 | 14.5 | 27.4 | 0.00 | 0.00 | 0.00 | 84 | 1012.0 |
| 20260505024749 | 22 | 165 | 12.9 | 32.2 | 0.00 | 0.00 | 0.00 | 84 | 1012.2 |
| 20260505024246 | 22 | 165 | 19.3 | 29.0 | 0.00 | 0.00 | 0.00 | 83 | 1012.1 |
| 20260505023744 | 22 | 163 | 11.3 | 27.4 | 0.00 | 0.00 | 0.00 | 83 | 1012.1 |
| 20260505023241 | 22 | 167 | 22.5 | 24.1 | 0.00 | 0.00 | 0.00 | 83 | 1011.9 |
| 20260505022738 | 22 | 170 | 20.9 | 30.6 | 0.00 | 0.00 | 0.00 | 83 | 1011.9 |
| 20260505022235 | 22 | 161 | 19.3 | 22.5 | 0.00 | 0.00 | 0.00 | 83 | 1012.0 |
| 20260505021731 | 22 | 185 | 17.7 | 25.7 | 0.00 | 0.00 | 0.00 | 82 | 1011.8 |
| 20260505021229 | 22 | 174 | 20.9 | 24.1 | 0.00 | 0.00 | 0.00 | 82 | 1012.0 |
| 20260505020724 | 22 | 178 | 11.3 | 24.1 | 0.00 | 0.00 | 0.00 | 82 | 1011.8 |
| 20260505020219 | 22 | 159 | 8.0 | 24.1 | 0.00 | 0.00 | 0.00 | 81 | 1011.6 |
| 20260505015717 | 22 | 170 | 16.1 | 22.5 | 0.00 | 0.00 | 0.00 | 81 | 1011.7 |
| 20260505015214 | 22 | 166 | 16.1 | 24.1 | 0.00 | 0.00 | 0.00 | 81 | 1011.6 |
| 20260505014711 | 22 | 177 | 16.1 | 25.7 | 0.00 | 0.00 | 0.00 | 81 | 1011.4 |
| 20260505014209 | 22 | 181 | 16.1 | 20.9 | 0.00 | 0.00 | 0.00 | 81 | 1011.4 |
| 20260505013705 | 22 | 169 | 12.9 | 24.1 | 0.00 | 0.00 | 0.00 | 80 | 1011.4 |
| 20260505013202 | 22 | 168 | 19.3 | 20.9 | 0.00 | 0.00 | 0.00 | 80 | 1011.4 |
| 20260505012700 | 23 | 145 | 14.5 | 24.1 | 0.00 | 0.00 | 0.00 | 80 | 1011.2 |
| 20260505012157 | 23 | 170 | 14.5 | 20.9 | 0.00 | 0.00 | 0.00 | 80 | 1011.4 |
| 20260505011653 | 23 | 182 | 11.3 | 25.7 | 0.00 | 0.00 | 0.00 | 80 | 1011.2 |
| 20260505011150 | 23 | 164 | 16.1 | 27.4 | 0.00 | 0.00 | 0.00 | 79 | 1011.2 |
| 20260505010645 | 23 | 171 | 11.3 | 20.9 | 0.00 | 0.00 | 0.00 | 79 | 1011.3 |
| 20260505010143 | 23 | 169 | 11.3 | 19.3 | 0.00 | 0.00 | 0.00 | 79 | 1011.0 |
| 20260505005638 | 23 | 155 | 11.3 | 17.7 | 0.00 | 0.00 | 0.00 | 78 | 1011.1 |
| 20260505005136 | 23 | 174 | 11.3 | 22.5 | 0.00 | 0.00 | 0.00 | 78 | 1011.1 |
| 20260505004633 | 23 | 183 | 20.9 | 22.5 | 0.00 | 0.00 | 0.00 | 77 | 1011.4 |
| 20260505004129 | 23 | 179 | 11.3 | 25.7 | 0.00 | 0.00 | 0.00 | 77 | 1011.1 |
| 20260505003627 | 24 | 164 | 11.3 | 24.1 | 0.00 | 0.00 | 0.00 | 76 | 1011.4 |
| 20260505003124 | 24 | 171 | 11.3 | 24.1 | 0.00 | 0.00 | 0.00 | 76 | 1011.3 |